Voltar ao catálogo

STARLINK-30961

AtivoComunicaçõesVLEO
NORAD 58445·PAYLOAD·🇺🇸 United States

Lançado Nov 28, 2023 de Cape Canaveral Space Force Station

Loading…

Próximas Passagens (próximas 24 horas)

TLE

AtualizadoSource: CelesTrak SupGP

Época: Sep 14, 2026, 22:42 UTC

1 58445C 23183J   26257.94631944  .00045439  00000+0  16458-2 0  2572
2 58445  43.0035  52.6092 0001702 272.4049 346.0024 15.27556515    17

Acompanhe STARLINK-30961 em tempo real com AllMySat

Download on the App Store